LiveATC.Net - Listen to live air traffic control over the Internet!


ICAO: UUEE  IATA: SVO   Airport: Sheremetyevo Airport
City: Moscow
Country: Russia   Continent: Europe
UUEE METAR Weather: UUEE 281630Z 10007MPS 9999 OVC005 M06/M07 Q1039 R06R/550140 R06C/550140 NOSIG
UUEE ADS-B Flight Tracking (ADSBExchange)
UUEE Flight Activity (FlightAware)

UUEE Twr/App/Radar
Feed Status: UP   Listeners: 4
Listen in your browser - HTML5 player (in browser, HTML5)
Click here to listen with your own player (launches your MP3 player)
Archive Access: UUEE Twr/App/Radar
FacilityFrequency
Sheremetyevo Radar (low altitude)119.300
Sheremetyevo Radar/Arrival122.700
Sheremetyevo Radar/Departure126.600
Sheremetyevo Tower131.500

NOTICE

Unauthorized use prohibited. See LiveATC.net Terms of Service


Airport/ARTCC Code
Frequency Search
(e.g., 124.400, 128.75)
Site-wide search
 


Browse Feeds
Top 50 Feeds
HF Oceanic Feeds
Coverage Map
Bad Weather Areas

LiveATC FAQ
Offer LiveATC feed
Contact LiveATC.net
Press Inquiries

LiveATC on iPhone
LiveATC on Android

LiveATC Mobile
(Mobile browser)

ATC Audio Archives
Interesting Recordings

LiveATC Forums


Home Page
About LiveATC.net


Terms of Use
Privacy Policy

AIRMETs/SIGMETs

FAA Airport Status
NAS Status
Arrival Demand


Server Software By:
Icecast.org
Liquidsoap